Find Starlink 3936

NORAD ID: 52674 Int'l Des: 2022-053 Owner: SPXS Country: US Constellation: starlink operational
LEOCIRCULAR

Live Position

Loading 3D Globe...

About Starlink 3936

Description loading...

Upcoming Passes

Passes for default location (London). Set your location on the main map for personalized predictions.

Altitude History

Loading altitude history...

Two-Line Element Set

1 52674U 22053U 26125.33335648 .00133787 00000-0 49864-2 0 9999
2 52674 53.2179 257.3869 0001070 80.0963 7.1966 15.26462395 5778
Epoch: May 5, 2026 • Age: 4 hours

Current Status

Altitude 494.8 km
Velocity 7.62 km/s
Sub-Earth Point -27.66°S, 172.44°W
Launch Date May 18, 2022
Age 3.9 years
Type internet

Technical Details

Classification Payload
Mass 297.00 kg
Dry Mass 275.00 kg
Total Mass 297.00 kg
Length 0.20 m
Diameter 2.80 m
Span 9.00 m
Shape Box + pan
Manufacturer SPXS
Bus Type Starlink
Phase Status In Orbit
Owner/State SPXS/US

Most Searched